Weather History for China Lake, CA

Change the Weather History Date:

Saturday, July 20, 2013

  Actual Average Record
Temperature  
Mean Temperature 96 °F -  
Max Temperature 111 °F 100 °F 111 °F (2005)
Min Temperature 82 °F 71 °F 60 °F (2000)
Cooling Degree Days 32    
Growing Degree Days 46 (Base 50)    
Moisture  
Dew Point 42 °F    
Average Humidity 16    
Maximum Humidity 22    
Minimum Humidity 11    
Precipitation  
Precipitation 0.00 in - - ()
Sea Level Pressure  
Sea Level Pressure 29.72 in    
Wind  
Wind Speed 10 mph (South)    
Max Wind Speed 22 mph    
Max Gust Speed 29 mph    
Visibility 10 miles    
Events      
Averages and records for this station are not official NWS values.
T = Trace of Precipitation, MM = Missing Value Source: NWS Daily Summary

Daily Weather History Graph

Daily Weather History Graph

Search for Another Location

Airport:

Trip Planner

Search our weather history database for the weather conditions in past years. The results will help you decide how hot, cold, wet, or windy it might be!

Date:

Astronomy

Jul. 20, 2013 Rise Set
Actual Time 5:50 AM PDT 8:03 PM PDT
Civil Twilight 5:21 AM PDT 8:32 PM PDT
Nautical Twilight 4:45 AM PDT 9:08 PM PDT
Astronomical Twilight 4:07 AM PDT 9:46 PM PDT
Moon 6:12 PM PDT (7/20) 3:34 AM PDT (7/20)
Length of Visible Light 15h 11m
Length of Day
14h 13m
Waxing Gibbous, 94% of the Moon is Illuminated
Jul 20
Waxing Gibbous
Jul 22
Full
Jul 29
Last Quarter
Aug 6
New
Aug 14
First Quarter

Hourly Weather History & Observations

Time (PDT) Temp. Dew Point Humidity Pressure Visibility Wind Dir Wind Speed Gust Speed Precip Events Conditions
12:56 AM 91.9 °F 36.0 °F 14% 29.70 in 10.0 mi SSW 11.5 mph - N/A   Clear
1:56 AM 90.0 °F 37.9 °F 16% 29.72 in 10.0 mi ESE 13.8 mph - N/A   Clear
2:56 AM 87.1 °F 41.0 °F 20% 29.73 in 10.0 mi SSE 15.0 mph - N/A   Clear
3:43 AM 86.0 °F 37.4 °F 18% 29.84 in 10.0 mi SW 12.7 mph - N/A   Clear
3:56 AM 86.0 °F 37.9 °F 18% 29.75 in 10.0 mi SW 15.0 mph - N/A   Clear
4:56 AM 84.9 °F 39.0 °F 20% 29.72 in 10.0 mi SW 16.1 mph - N/A   Clear
5:56 AM 82.0 °F 39.9 °F 22% 29.73 in 10.0 mi WSW 5.8 mph - N/A   Clear
6:56 AM 84.0 °F 39.9 °F 21% 29.75 in 10.0 mi South 4.6 mph - N/A   Clear
7:56 AM 89.1 °F 39.0 °F 17% 29.78 in 10.0 mi SSW 5.8 mph - N/A   Clear
8:56 AM 93.0 °F 39.0 °F 15% 29.79 in 10.0 mi Calm Calm - N/A   Clear
9:56 AM 98.1 °F 39.0 °F 13% 29.78 in 10.0 mi ESE 4.6 mph - N/A   Clear
10:56 AM 100.0 °F 37.9 °F 12% 29.78 in 10.0 mi Calm Calm - N/A   Clear
11:56 AM 102.9 °F 41.0 °F 12% 29.77 in 10.0 mi East 3.5 mph - N/A   Clear
12:56 PM 105.1 °F 43.0 °F 12% 29.74 in 10.0 mi Calm Calm - N/A   Clear
1:56 PM 109.0 °F 45.0 °F 12% 29.72 in 10.0 mi Variable 6.9 mph - N/A   Clear
2:56 PM 108.0 °F 45.0 °F 12% 29.69 in 10.0 mi Variable 3.5 mph - N/A   Clear
3:56 PM 111.0 °F 44.1 °F 11% 29.66 in 10.0 mi SE 6.9 mph - N/A   Clear
4:56 PM 111.0 °F 44.1 °F 11% 29.64 in 10.0 mi WSW 8.1 mph - N/A   Clear
5:56 PM 108.0 °F 45.0 °F 12% 29.63 in 10.0 mi SSE 15.0 mph 24.2 mph N/A   Clear
6:56 PM 102.9 °F 48.0 °F 16% 29.64 in 10.0 mi South 21.9 mph 28.8 mph N/A   Clear
7:56 PM 100.0 °F 48.9 °F 18% 29.65 in 10.0 mi South 19.6 mph 26.5 mph N/A   Clear
8:56 PM 97.0 °F 50.0 °F 20% 29.66 in 10.0 mi South 12.7 mph - N/A   Clear
9:56 PM 95.0 °F 46.9 °F 19% 29.68 in 10.0 mi South 11.5 mph - N/A   Clear
10:56 PM 93.0 °F 45.0 °F 19% 29.69 in 10.0 mi South 15.0 mph - N/A   Clear
11:56 PM 91.9 °F 45.0 °F 20% 29.72 in 10.0 mi SSE 4.6 mph - N/A   Clear